Regional Weather Roundup
Issued by NWS

Home | Current Version | Previous Version | Graphics & Text | Print | Product List | Glossary On
Versions: 1 2 3 4 5 6 7 8 9 10 11 12 13 14 15 16 17 18 19 20 21 22 23 24 25 26 27 28 29 30 31 32 33 34 35 36 37 38 39 40 41 42 43 44 45 46 47 48 49 50
000
ASUS43 KTOP 250759
RWRKS

WEATHER ROUNDUP FOR KANSAS
NATIONAL WEATHER SERVICE GOODLAND KS
300 AM CDT SAT MAR 25 2017

NOTE:  "FAIR" INDICATES FEW OR NO CLOUDS BELOW 12,000 FEET WITH NO
SIGNIFICANT WEATHER AND/OR OBSTRUCTIONS TO VISIBILITY.

KSZ001>006-013>018-027>032-041>047-250900-
NORTHWEST KANSAS

CITY           SKY/WX    TMP DP  RH WIND       PRES   REMARKS
GOODLAND       CLEAR     34  32  92 NW9       30.05F
HAYS             N/A     41  38  89 N18G25    30.00S
HILL CITY      CLOUDY    43  40  89 N14       30.03F
RUSSELL        CLOUDY    40  38  93 NW20G28   29.96F WCI  30
$$

KSZ061>065-074>080-084>089-250900-
SOUTHWEST KANSAS

CITY           SKY/WX    TMP DP  RH WIND       PRES   REMARKS
DODGE CITY     CLOUDY    41  39  93 N17       30.00S
ELKHART          N/A     36  26  67 NW14        N/A  WCI  27
GARDEN CITY    CLOUDY    42  38  85 N15       30.03S
GREAT BEND     CLOUDY    41  38  89 NW20G28   29.95F
LIBERAL        CLOUDY    45  36  70 NW12      30.05S
$$

KSZ066>073-081>083-090>101-250900-
SOUTHEAST KANSAS

CITY           SKY/WX    TMP DP  RH WIND       PRES   REMARKS
CHANUTE        RAIN      53  51  93 SW6       29.78S FOG
COFFEYVILLE    LGT RAIN  53  51  93 N17       29.73F
HUTCHINSON     LGT RAIN  42  40  92 NW16      29.90S
MEDICINE LODGE   N/A     43  38  82 N21G31    29.91R
NEWTON         LGT RAIN  43  41  93 NW17      29.86S
PARSONS        CLOUDY    53  51  93 S6        29.79F
WICHITA INTL   LGT RAIN  44  43  96 N23G31    29.87R
WICHITA JABRA  LGT RAIN  44  43  96 NW17G31   29.85R
WICHITA MCCONL LGT RAIN  45  41  87 N20G28    29.85R
WINFIELD       CLOUDY    48  44  86 N13       29.85R
$$

KSZ007>012-019>026-033>040-048>060-102>105-250900-
NORTHEAST KANSAS

CITY           SKY/WX    TMP DP  RH WIND       PRES   REMARKS
CONCORDIA      LGT RAIN  41  41 100 N16       29.93S FOG
EMPORIA        LGT RAIN  45  45 100 NW16G22   29.81S
LAWRENCE       LGT RAIN  50  49  96 NW13      29.77F
MANHATTAN      CLOUDY    45  42  89 N7        29.87R
OLATHE IND     CLOUDY    54  53  97 N12       29.75F FOG
OLATHE EXE     CLOUDY    55  55 100 CALM      29.74F
SALINA         CLOUDY    45  42  89 NW17      29.92S
TOPEKA BILLARD CLOUDY    47  47 100 NW10      29.80F
TOPEKA FORBES  LGT RAIN  49  47  93 NW13      29.80F
$$




USA.gov is the U.S. government's official web portal to all federal, state and local government web resources and services.